West Chester Brandywine Airpo, PA

4:53 PM EST on November 21, 2019 (GMT -0500)
West Chester Brandywine Airpo

Weather History for KOQN - September, 2019

Change the Weather History Date:

Monday, September 30, 2019

  Actual Average (WUND) Record (WUND)
Temperature  
Mean Temperature 64 °F -  
Max Temperature 69 °F - - (-1)
Min Temperature 60 °F - - (-1)
Growing Degree Days 14 (Base 50)    
Moisture  
Dew Point 54 °F    
Average Humidity 67    
Maximum Humidity 88    
Minimum Humidity 49    
Precipitation  
Precipitation 0.00 in - - ()
Sea Level Pressure  
Sea Level Pressure 30.27 in    
Wind  
Wind Speed 2 mph (ESE)    
Max Wind Speed 7 mph    
Max Gust Speed -    
Visibility 10 miles    
Events      
Averages and records for this station are not official NWS values.
T = Trace of Precipitation, MM = Missing Value Source: NWS Daily Summary

Daily Weather History Graph

Daily Weather History Graph

Search for Another Location

Airport or City:

Astronomy

Sep. 30, 2019 Rise Set
Actual Time 6:57 AM EDT 6:46 PM EDT
Civil Twilight 6:30 AM EDT 7:13 PM EDT
Nautical Twilight 5:58 AM EDT 7:44 PM EDT
Astronomical Twilight 5:27 AM EDT 8:16 PM EDT
Moon 8:58 AM EDT (9/30) 8:21 PM EDT (9/30)
Length of Visible Light 12h 43m
Length of Day
11h 49m
Waxing Crescent, 5% of the Moon is Illuminated
Sep 30
Waxing Crescent
Oct 5
First Quarter
Oct 13
Full
Oct 21
Last Quarter
Oct 27
New

Hourly Weather History & Observations

Time (EDT) Temp. Dew Point Humidity Pressure Visibility Wind Dir Wind Speed Gust Speed Precip Events Conditions
12:15 AM 68.0 °F 60.8 °F 78% 30.29 in 10.0 mi Calm Calm - N/A   Clear
12:35 AM 68.0 °F 60.8 °F 78% 30.29 in 10.0 mi Calm Calm - N/A   Clear
12:55 AM 68.0 °F 60.8 °F 78% 30.30 in 10.0 mi Calm Calm - N/A   Clear
1:15 AM 68.0 °F 60.8 °F 78% 30.29 in 10.0 mi Calm Calm - N/A   Clear
1:35 AM 64.4 °F 60.8 °F 88% 30.29 in 10.0 mi Calm Calm - N/A   Clear
1:55 AM 64.4 °F 60.8 °F 88% 30.29 in 10.0 mi Calm Calm - N/A   Clear
2:15 AM 64.4 °F 60.8 °F 88% 30.29 in 10.0 mi NNE 3.5 mph - N/A   Clear
2:35 AM 64.4 °F 50.0 °F 59% 30.29 in 10.0 mi NE 3.5 mph - N/A   Scattered Clouds
2:55 AM 64.4 °F 44.6 °F 49% 30.28 in 10.0 mi Calm Calm - N/A   Mostly Cloudy
3:15 AM 64.4 °F 44.6 °F 49% 30.29 in 10.0 mi Calm Calm - N/A   Scattered Clouds
3:35 AM 64.4 °F 44.6 °F 49% 30.29 in 10.0 mi Calm Calm - N/A   Clear
3:55 AM 62.6 °F 44.6 °F 52% 30.28 in 10.0 mi Calm Calm - N/A   Scattered Clouds
4:15 AM 62.6 °F 44.6 °F 52% 30.28 in 10.0 mi Calm Calm - N/A   Clear
4:35 AM 62.6 °F 44.6 °F 52% 30.29 in 10.0 mi Calm Calm - N/A   Mostly Cloudy
4:55 AM 62.6 °F 44.6 °F 52% 30.29 in 10.0 mi Calm Calm - N/A   Overcast
5:15 AM 62.6 °F 44.6 °F 52% 30.29 in 10.0 mi East 3.5 mph - N/A   Overcast
5:35 AM 60.8 °F 46.4 °F 59% 30.29 in 10.0 mi East 3.5 mph - N/A   Overcast
5:55 AM 62.6 °F 46.4 °F 55% 30.29 in 10.0 mi ENE 4.6 mph - N/A   Overcast
6:15 AM 60.8 °F 46.4 °F 59% 30.29 in 10.0 mi ENE 4.6 mph - N/A   Overcast
6:35 AM 60.8 °F 46.4 °F 59% 30.29 in 10.0 mi Calm Calm - N/A   Overcast
6:55 AM 62.6 °F 46.4 °F 55% 30.29 in 10.0 mi East 3.5 mph - N/A   Overcast
7:15 AM 62.6 °F 48.2 °F 59% 30.30 in 10.0 mi ENE 3.5 mph - N/A   Overcast
7:35 AM 62.6 °F 48.2 °F 59% 30.30 in 10.0 mi East 3.5 mph - N/A   Overcast
7:55 AM 60.8 °F 50.0 °F 68% 30.31 in 10.0 mi Calm Calm - N/A   Overcast
8:15 AM 62.6 °F 50.0 °F 63% 30.31 in 10.0 mi NE 4.6 mph - N/A   Overcast
8:35 AM 60.8 °F 50.0 °F 68% 30.32 in 10.0 mi ENE 3.5 mph - N/A   Overcast
8:55 AM 60.8 °F 50.0 °F 68% 30.32 in 10.0 mi East 3.5 mph - N/A   Overcast
9:15 AM 62.6 °F 50.0 °F 63% 30.32 in 10.0 mi Calm Calm - N/A   Overcast
9:35 AM 62.6 °F 51.8 °F 68% 30.32 in 10.0 mi ENE 5.8 mph - N/A   Overcast
9:55 AM 62.6 °F 51.8 °F 68% 30.32 in 10.0 mi ENE 4.6 mph - N/A   Overcast
10:15 AM 64.4 °F 53.6 °F 68% 30.32 in 10.0 mi ENE 3.5 mph - N/A   Overcast
10:35 AM 64.4 °F 53.6 °F 68% 30.32 in 10.0 mi Calm Calm - N/A   Overcast
10:55 AM 64.4 °F 53.6 °F 68% 30.32 in 10.0 mi East 4.6 mph - N/A   Overcast
11:15 AM 66.2 °F 55.4 °F 68% 30.32 in 10.0 mi ESE 4.6 mph - N/A   Overcast
11:35 AM 66.2 °F 55.4 °F 68% 30.32 in 10.0 mi SE 4.6 mph - N/A   Overcast
11:55 AM 68.0 °F 55.4 °F 64% 30.31 in 10.0 mi East 3.5 mph - N/A   Overcast
12:15 PM 68.0 °F 55.4 °F 64% 30.30 in 10.0 mi ESE 4.6 mph - N/A   Overcast
12:35 PM 68.0 °F 57.2 °F 68% 30.29 in 10.0 mi SE 3.5 mph - N/A   Overcast
12:55 PM 69.8 °F 57.2 °F 64% 30.29 in 10.0 mi East 6.9 mph - N/A   Overcast
1:15 PM 69.8 °F 57.2 °F 64% 30.29 in 10.0 mi East 4.6 mph - N/A   Overcast
1:35 PM 69.8 °F 57.2 °F 64% 30.27 in 10.0 mi East 3.5 mph - N/A   Overcast
1:55 PM 69.8 °F 57.2 °F 64% 30.27 in 10.0 mi ESE 5.8 mph - N/A   Overcast
2:15 PM 69.8 °F 57.2 °F 64% 30.27 in 10.0 mi East 3.5 mph - N/A   Overcast
2:35 PM 69.8 °F 57.2 °F 64% 30.25 in 10.0 mi ESE 3.5 mph - N/A   Overcast
2:55 PM 69.8 °F 57.2 °F 64% 30.25 in 10.0 mi ESE 3.5 mph - N/A   Overcast
3:15 PM 69.8 °F 57.2 °F 64% 30.24 in 10.0 mi ESE 4.6 mph - N/A   Overcast
3:35 PM 69.8 °F 57.2 °F 64% 30.23 in 10.0 mi SE 3.5 mph - N/A   Overcast
3:55 PM 69.8 °F 57.2 °F 64% 30.23 in 10.0 mi Calm Calm - N/A   Overcast
4:15 PM 69.8 °F 57.2 °F 64% 30.23 in 10.0 mi SSE 3.5 mph - N/A   Overcast
4:35 PM 68.0 °F 57.2 °F 68% 30.23 in 10.0 mi ESE 5.8 mph - N/A   Overcast
4:55 PM 68.0 °F 57.2 °F 68% 30.23 in 10.0 mi SE 4.6 mph - N/A   Overcast
5:15 PM 68.0 °F 57.2 °F 68% 30.23 in 10.0 mi SE 5.8 mph - N/A   Overcast
5:35 PM 68.0 °F 57.2 °F 68% 30.22 in 10.0 mi ESE 5.8 mph - N/A   Overcast
5:55 PM 68.0 °F 57.2 °F 68% 30.22 in 10.0 mi ESE 5.8 mph - N/A   Overcast
6:15 PM 68.0 °F 57.2 °F 68% 30.22 in 10.0 mi SE 4.6 mph - N/A   Overcast
6:35 PM 68.0 °F 57.2 °F 68% 30.22 in 10.0 mi SE 3.5 mph - N/A   Overcast
6:55 PM 66.2 °F 57.2 °F 73% 30.22 in 10.0 mi SE 6.9 mph - N/A   Overcast
7:15 PM 66.2 °F 55.4 °F 68% 30.22 in 10.0 mi SE 4.6 mph - N/A   Overcast
7:35 PM 64.4 °F 55.4 °F 73% 30.22 in 10.0 mi SE 5.8 mph - N/A   Overcast
7:55 PM 64.4 °F 55.4 °F 73% 30.22 in 10.0 mi SE 4.6 mph - N/A   Overcast
8:15 PM 64.4 °F 55.4 °F 73% 30.22 in 10.0 mi SE 3.5 mph - N/A   Overcast
8:35 PM 64.4 °F 55.4 °F 73% 30.23 in 10.0 mi SE 3.5 mph - N/A   Overcast
8:55 PM 64.4 °F 55.4 °F 73% 30.22 in 10.0 mi SE 4.6 mph - N/A   Overcast
9:15 PM 64.4 °F 55.4 °F 73% 30.22 in 10.0 mi Calm Calm - N/A   Overcast
9:35 PM 64.4 °F 55.4 °F 73% 30.23 in 10.0 mi SE 3.5 mph - N/A   Overcast
9:55 PM 64.4 °F 55.4 °F 73% 30.23 in 10.0 mi SE 3.5 mph - N/A   Overcast
10:15 PM 64.4 °F 55.4 °F 73% 30.22 in 10.0 mi SE 4.6 mph - N/A   Overcast
10:35 PM 64.4 °F 55.4 °F 73% 30.22 in 10.0 mi SE 3.5 mph - N/A   Overcast
10:55 PM 64.4 °F 55.4 °F 73% 30.23 in 10.0 mi Calm Calm - N/A   Overcast
11:15 PM 64.4 °F 55.4 °F 73% 30.23 in 10.0 mi Calm Calm - N/A   Overcast
11:35 PM 62.6 °F 55.4 °F 77% 30.22 in 10.0 mi Calm Calm - N/A   Overcast
11:55 PM 62.6 °F 55.4 °F 77% 30.21 in 10.0 mi SE 5.8 mph - N/A   Overcast